Location: Cannifist
(18.2333°N, 63.0167°W)
Time: 07:49:54
(UTC+00:00)

Envisat - Pass Details

Date: 27 June 2021
Orbit: 764 x 766 km, 98.2° (Epoch: 28 July)

Event Time Altitude Azimuth Distance (km) Brightness Sun altitude
Rises 08:14:28 0° 41° (NE) 3,222 7.7 -18.3°
Reaches altitude 10° 08:17:55 10° 66° (ENE) 2,294 6.7 -17.7°
Maximum altitude 08:20:31 14° 97° (E) 2,020 5.9 -17.1°
Drops below altitude 10° 08:23:06 10° 129° (SE) 2,291 5.7 -16.6°
Sets 08:26:31 0° 153° (SSE) 3,215 6.2 -15.9°
